Home   Weather   Oakland   Past weeks

Flag for USA Past Weather in Oakland, California, USA — Yesterday and Last 2 Weeks

66 °F

Passing clouds.

Feels Like: 66 °F
Forecast: 58 / 67 °F
Wind: 14 mph from West

Location: Metro Oakland International Airport

Current Time: Oct 23, 2016 at 5:03:54 PM

Latest Report: Oct 23, 2016 at 3:53 PM

Visibility: 10 mi

Pressure: 29.89 "Hg

Humidity: 63%

Dew Point: 53 °F

Location of OaklandLocation

Past Weather in Oakland — Graph


Oakland Temperature Yesterday

Maximum temperature yesterday: 68 °F (at 1:53 PM)
Minimum temperature yesterday: 54 °F (at 4:53 AM)
Average temperature yesterday: 61 °F

High & Low Weather Summary for the Past Weeks

High81 °F (Oct 8, 3:53 PM)97% (Oct 14, 12:00 PM)30.21 "Hg (Oct 14, 12:00 PM)
Low50 °F (Oct 19, 6:53 AM)30% (Oct 9, 2:53 PM)29.75 "Hg (Oct 16, 2:53 PM)
Average63 °F76%29.99 "Hg
* Reported Oct 8 3:53 PM — Oct 23 3:53 PM, Oakland, Weather by CustomWeather, © 2016

Note: Actual official high and low records may vary slightly from our data, if they occured in-between our weather recording intervals... More about our weather records


Oakland Weather History for the Previous 24 Hours

Scroll right to see more
Time TempWeatherWind HumidityBarometerVisibility
3:53 PM
Sun, Oct 23
66 °FPassing clouds.14 mph63%29.89 "Hg10 mi
2:53 PM65 °FPassing clouds.13 mph68%29.90 "Hg10 mi
1:53 PM66 °FPassing clouds.10 mph65%29.92 "Hg10 mi
12:53 PM65 °FPassing clouds.7 mph68%29.93 "Hg10 mi
11:53 AM64 °FPassing clouds.7 mph70%29.95 "Hg10 mi
10:53 AM62 °FPassing clouds.7 mph73%29.96 "Hg10 mi
9:53 AM60 °FScattered clouds.5 mph78%29.95 "Hg10 mi
8:53 AM56 °FScattered clouds.No wind90%29.94 "Hg10 mi
7:53 AM51 °FPartly sunny.3 mph89%29.93 "Hg10 mi
6:53 AM52 °FPassing clouds.3 mph89%29.91 "Hg10 mi
5:53 AM53 °FPassing clouds.3 mph83%29.90 "Hg10 mi
4:53 AM59 °FPassing clouds.7 mph81%29.90 "Hg10 mi
3:53 AM53 °FPassing clouds.5 mph86%29.90 "Hg10 mi
2:53 AM54 °FPassing clouds.5 mph86%29.91 "Hg10 mi
1:53 AM54 °FPassing clouds.5 mph80%29.90 "Hg10 mi
12:53 AM59 °FPassing clouds.9 mph75%29.90 "Hg10 mi
11:53 PM
Sat, Oct 22
59 °FPassing clouds.6 mph75%29.89 "Hg10 mi
10:53 PM59 °FPassing clouds.8 mph75%29.90 "Hg10 mi
9:53 PM59 °FPassing clouds.6 mph75%29.89 "Hg10 mi
8:53 PM61 °FPassing clouds.7 mph70%29.88 "Hg10 mi
7:53 PM62 °FPassing clouds.7 mph70%29.87 "Hg10 mi
6:53 PM62 °FPassing clouds.10 mph70%29.87 "Hg10 mi
5:53 PM63 °FPartly sunny.8 mph68%29.86 "Hg10 mi
Weather by CustomWeather, © 2016

See weather overviewHow to use our weather pages